Cosmos 1484 Rocket - Orbit

View from above orbital plane
View from above orbital plane
View from above satellite
View from above satellite

Ground track
Ground track

The orbit data is extracted from the following two-line orbital elements,

1 14208U 83075B   13141.79695480  .00001979  00000-0  14059-3 0  7475
2 14208 097.4761 186.7388 0044158 197.8489 162.1189 15.05059157623300
Epoch (UTC): 21 May 2013 19:07:36
Eccentricity: 0.0044158
inclination: 97.4761°
perigee height: 521 km
apogee height: 582 km
right ascension of ascending node: 186.7388°
argument of perigee: 197.8489°
revolutions per day: 15.05059157
mean anomaly at epoch: 162.1189°
orbit number at epoch: 62330

The dashed part of the orbit path shows where the satellite is in the earth's shadow,  

Developed and maintained by Chris Peat, Heavens-Above GmbH. Please read the updated FAQ before sending e-mail. Imprint. DLR